Location: Natural Bridges National Monument
(37.6093°N, 109.9767°W)
Time: 05:26:29
(UTC-07:00)

USA 32 - Visible Passes

Search period start: 07 December 2016 00:00
Search period end: 17 December 2016 00:00
Orbit: 775 x 785 km, 85.0° (Epoch: 05 December)

Date Brightness Start Highest point End Pass type
(mag) Time Alt. Az. Time Alt. Az. Time Alt. Az.
07 Dec 4.3 04:55:40 41° NNE 04:57:27 67° E 05:02:39 10° SSE visible
07 Dec 5.7 06:36:18 11° WNW 06:37:44 12° W 06:39:45 10° WSW visible
07 Dec 4.5 17:47:24 10° SSW 17:52:35 66° W 17:57:46 10° N visible
08 Dec 5.4 04:24:25 36° ENE 04:24:35 36° E 04:29:23 10° SSE visible
08 Dec 5.1 06:05:02 23° W 06:05:15 23° W 06:09:16 10° SW visible
08 Dec 6.9 18:59:12 10° W 19:01:16 12° WNW 19:03:21 10° NW visible
09 Dec 6.5 03:53:06 18° E 03:53:06 18° E 03:55:26 10° ESE visible
09 Dec 4.6 05:33:44 37° WSW 05:33:44 37° WSW 05:37:34 10° SSW visible
09 Dec 6.4 18:24:09 10° SW 18:28:10 22° WNW 18:32:14 10° NNW visible
10 Dec 5.0 05:02:20 34° S 05:02:20 34° S 05:05:14 10° S visible
10 Dec 5.5 17:50:20 10° SSW 17:55:12 40° W 18:00:07 10° NNW visible
11 Dec 6.0 04:30:52 19° SSE 04:30:52 19° SSE 04:32:23 10° SSE visible
12 Dec 6.8 18:28:20 10° WSW 18:30:59 14° WNW 18:33:38 10° NW visible
13 Dec 6.3 17:53:39 10° SW 17:57:54 25° WNW 18:02:11 10° NNW visible
16 Dec 6.7 17:57:36 10° WSW 18:00:41 16° WNW 18:03:47 10° NW visible
